Farmingdale, NY

4:15 PM EDT on June 19, 2018 (GMT -0400)
Republic

Weather History for KFRG - September, 2017

Change the Weather History Date:

Saturday, September 2, 2017

  Actual Average Record
Temperature  
Mean Temperature 58 °F -  
Max Temperature 64 °F 77 °F 89 °F (2005)
Min Temperature 52 °F 62 °F 52 °F (2017)
Degree Days  
Heating Degree Days 7    
Growing Degree Days 8 (Base 50)    
Moisture  
Dew Point 49 °F    
Average Humidity 71    
Maximum Humidity 93    
Minimum Humidity 54    
Precipitation  
Precipitation 0.34 in - - ()
Sea Level Pressure  
Sea Level Pressure 30.19 in    
Wind  
Wind Speed 7 mph (ENE)    
Max Wind Speed 10 mph    
Max Gust Speed -    
Visibility 9 miles    
Events Rain    
Averages and records for this station are not official NWS values.
T = Trace of Precipitation, MM = Missing Value Source: NWS Daily Summary

Daily Weather History Graph

Daily Weather History Graph

Search for Another Location

Airport or City:

Astronomy

Sep. 02, 2017 Rise Set
Actual Time 6:21 AM EDT 7:23 PM EDT
Civil Twilight 5:53 AM EDT 7:51 PM EDT
Nautical Twilight 5:20 AM EDT 8:25 PM EDT
Astronomical Twilight 4:45 AM EDT 8:59 PM EDT
Moon 5:19 PM EDT (9/2) 2:36 AM EDT (9/2)
Length of Visible Light 13h 58m
Length of Day
13h 02m
Waxing Gibbous, 87% of the Moon is Illuminated
Sep 2
Waxing Gibbous
Sep 6
Full
Sep 13
Last Quarter
Sep 20
New
Sep 27
First Quarter

Hourly Weather History & Observations

Time (EDT) Temp. Dew Point Humidity Pressure Visibility Wind Dir Wind Speed Gust Speed Precip Events Conditions
12:53 AM 55.9 °F 45.0 °F 67% 30.20 in 10.0 mi NNE 6.9 mph - N/A   Clear
1:53 AM 54.0 °F 44.1 °F 69% 30.19 in 10.0 mi NNE 6.9 mph - N/A   Clear
2:53 AM 54.0 °F 44.1 °F 69% 30.19 in 10.0 mi NNE 5.8 mph - N/A   Clear
3:53 AM 53.1 °F 45.0 °F 74% 30.18 in 10.0 mi NNE 6.9 mph - N/A   Clear
4:53 AM 53.1 °F 45.0 °F 74% 30.21 in 10.0 mi NNE 4.6 mph - N/A   Clear
5:53 AM 52.0 °F 45.0 °F 77% 30.20 in 10.0 mi NNE 5.8 mph - N/A   Clear
6:53 AM 53.1 °F 46.0 °F 77% 30.22 in 10.0 mi NNE 5.8 mph - N/A   Clear
7:53 AM 57.0 °F 46.9 °F 69% 30.24 in 10.0 mi ENE 4.6 mph - N/A   Clear
8:53 AM 59.0 °F 46.0 °F 62% 30.24 in 10.0 mi ENE 6.9 mph - N/A   Clear
9:53 AM 61.0 °F 46.0 °F 58% 30.25 in 10.0 mi ENE 6.9 mph - N/A   Clear
10:53 AM 63.0 °F 46.0 °F 54% 30.26 in 10.0 mi ESE 8.1 mph - N/A   Clear
11:53 AM 63.0 °F 48.0 °F 58% 30.24 in 10.0 mi ESE 8.1 mph - N/A   Clear
12:53 PM 64.0 °F 48.0 °F 56% 30.23 in 10.0 mi East 8.1 mph - N/A   Clear
1:53 PM 64.9 °F 48.9 °F 56% 30.22 in 10.0 mi ESE 8.1 mph - N/A   Clear
2:53 PM 64.0 °F 50.0 °F 60% 30.20 in 10.0 mi East 9.2 mph - N/A   Clear
3:53 PM 64.0 °F 48.9 °F 58% 30.18 in 10.0 mi ESE 9.2 mph - N/A   Clear
4:53 PM 64.0 °F 48.9 °F 58% 30.18 in 10.0 mi ESE 8.1 mph - N/A   Clear
5:53 PM 63.0 °F 51.1 °F 65% 30.17 in 10.0 mi East 8.1 mph - N/A   Mostly Cloudy
6:53 PM 62.1 °F 52.0 °F 70% 30.16 in 10.0 mi East 5.8 mph - N/A   Mostly Cloudy
7:53 PM 59.0 °F 55.0 °F 87% 30.17 in 10.0 mi ENE 4.6 mph - 0.03 in Rain Light Rain
8:53 PM 59.0 °F 55.9 °F 90% 30.15 in 10.0 mi East 9.2 mph - 0.04 in Rain Light Rain
9:53 PM 59.0 °F 57.0 °F 93% 30.15 in 8.0 mi East 6.9 mph - 0.03 in Rain Light Rain
10:23 PM 59.0 °F 57.0 °F 93% 30.15 in 7.0 mi East 5.8 mph - 0.05 in Rain Rain
10:53 PM 57.9 °F 55.0 °F 90% 30.13 in 6.0 mi East 10.4 mph - 0.10 in Rain Light Rain
11:53 PM 57.9 °F 55.9 °F 93% 30.13 in 5.0 mi East 6.9 mph - 0.14 in Rain Rain